COSMOS 1275 DEB, 42183

Orbit data source: Space-Track

COSMOS 1275 DEB, 42183 is space debris in LEO originally from a launch on Thu, 04 Jun 1981 UTC launched from the Plesetsk Missile And Space Complex (PKMTR). Debris objects in space refer to the collection of defunct objects orbiting the Earth. Examples of debris include non-operational satellites, rocket bodies, and fragments generated from explosions, collisions, or faulty payload assembly.

Loading next visibility...
Identifier
42183, 1981-053SX
Orbit
LEO
Country
Flag of CISCIS
Related business
Manufacturer
Unknown
Mission
Spacecraft
Bus & Motor
Unknown
Mass
Unknown
Launch date (UTC)
1981-06-04 (44 years ago)
Launch vehicle
Unknown
Launch site
Plesetsk Missile And Space Complex (PKMTR)
Object type
Payload
Rocket body
Debris
Shape & HBR
Unknown shape, 0.1 m
Radar Cross Section
Small (<0.1 m²)

Expand to show TLE details & history
Last TLE update: 2 weeks ago

TLE from 2 weeks ago
0 COSMOS 1275 DEB
1 42183U 81053SX  25294.53816206  .00001717  00000-0  14404-2 0  9999
2 42183  82.9388  30.1375 0048138  41.5261 338.5126 13.87018825581533
Epoch: 2025-10-21T12:54Z
TLE epoch observation values (Epoch: 2025-10-21T12:54:57.201Z)
Latitude
19.68006°
Longitude
168.70035°
Altitude
908.82 km
Speed
7.416 km/s
True Right ascension
02h 10m 39s
True Declination
19° 34' 25"
Sunlit
Object was in full shadow at epoch
Visualization orbit readout
Latitude
Unknown
Longitude
Unknown
Altitude
Unknown
Speed
Unknown
Apparent Right ascension
Unknown
Apparent Declination
Unknown
Sunlit
N/A
Visualization observer readout
Local Sidereal Time
16:50:21
Azimuth
Unknown
Elevation
Unknown
Doppler factor
Unknown
Orbital elements
Apogee altitude
971.439 km
Perigee altitude
901.019 km
Semi-major axis
7,314.366 km
Eccentricity
0.00481
Inclination
82.9388°
RAAN
30.1375°
Arg. of periapsis
41.5261°
True anomaly
338.30941°
Mean anomaly
338.5126°
Eccentric anomaly
338.41112°
Mean motion
3.46959 °/min
Orbital period
103.76 mins
BSTAR
0.0014404
Loading maneuver chart data...
Computing Atmospheric mass density...
Loading historical data...
Loading historical data...
Loading historical data...
Loading historical data...
Loading historical data...
Loading historical data...
Loading historical data...

Documentation

Showing up to 5 results
|